Location: Caltech
(34.1382°N, 118.1253°W)
Time: 08:29:21
(UTC-07:00)

Cosmos 1697 Rocket - Visible Passes

Search period start: 27 June 2017 00:00
Search period end: 07 July 2017 00:00
Orbit: 834 x 842 km, 71.0° (Epoch: 23 June)

Date Brightness Start Highest point End Pass type
(mag) Time Alt. Az. Time Alt. Az. Time Alt. Az.
27 Jun 5.4 04:56:45 10° ESE 04:59:06 13° E 05:01:27 10° ENE visible
28 Jun 5.4 04:41:14 10° ESE 04:43:00 11° E 04:44:47 10° ENE visible
29 Jun 5.6 04:26:06 10° ESE 04:26:55 10° E 04:27:43 10° E visible
02 Jul 2.8 05:16:02 10° SSW 05:21:37 82° ESE 05:27:15 10° NNE visible
03 Jul 2.9 04:59:54 10° SSW 05:05:29 76° ESE 05:11:06 10° NNE visible
04 Jul 3.0 04:43:47 10° S 04:49:21 70° ESE 04:54:56 10° NNE visible
05 Jul 3.0 04:27:53 11° S 04:33:12 64° ESE 04:38:45 10° NNE visible
06 Jul 3.1 04:12:37 16° S 04:17:04 59° ESE 04:22:34 10° NNE visible
